WX6HNX-4 Weather Reports


time (UTC)temp
C
wind
direction
speed
KPH
gust
KPH
rain 1hr
cm
rain 24hr
cm
rain mn
cm
humidity
%
barometer
mb
20260506153249 15 340 3.2 6.4 0.00 0.08 0.00 71 1011.5
20260506151710 14 39 3.2 9.7 0.00 0.08 0.00 71 1011.6
20260506145714 14 0 0.0 6.4 0.00 0.08 0.00 71 1011.6
20260506144711 14 56 1.6 4.8 0.00 0.08 0.00 74 1011.6
20260506144211 13 57 1.6 4.8 0.00 0.08 0.00 75 1011.6
20260506143210 13 0 0.0 4.8 0.00 0.08 0.00 76 1011.4
20260506140506 12 67 4.8 8.0 0.00 0.08 0.00 84 1011.1
20260506140006 11 86 4.8 8.0 0.00 0.08 0.00 87 1011.1
20260506133506 10 97 6.4 9.7 0.00 0.08 0.00 86 1011.1
20260506131006 10 95 4.8 9.7 0.00 0.08 0.00 83 1010.9
20260506125006 11 26 1.6 6.4 0.00 0.08 0.00 82 1010.7
20260506124006 11 27 1.6 8.0 0.00 0.08 0.00 81 1010.6
20260506123006 11 34 4.8 8.0 0.00 0.08 0.00 81 1010.5
20260506122506 11 36 4.8 9.7 0.00 0.08 0.00 80 1010.4
20260506121508 12 32 6.4 12.9 0.00 0.08 0.00 80 1010.4
20260506120506 12 22 6.4 12.9 0.00 0.08 0.00 78 1010.4
20260506114852 12 46 4.8 8.0 0.00 0.08 0.00 80 1010.5
20260506112852 12 232 1.6 4.8 0.00 0.08 0.00 79 1010.2
20260506112352 12 232 3.2 4.8 0.00 0.08 0.00 78 1010.2
20260506105852 12 233 3.2 8.0 0.00 0.08 0.00 77 1010.0
20260506104444 12 175 3.2 9.7 0.00 0.08 0.00 78 1009.8
20260506103944 12 169 4.8 9.7 0.00 0.08 0.00 79 1009.8
20260506102444 11 150 4.8 9.7 0.00 0.08 0.00 80 1009.6
20260506101945 11 147 8.0 11.3 0.00 0.10 0.00 80 1009.7
20260506095944 10 140 9.7 12.9 0.00 0.10 0.00 81 1009.6
20260506095444 10 140 11.3 14.5 0.00 0.10 0.00 80 1009.5
20260506094444 10 139 11.3 14.5 0.00 0.10 0.00 79 1009.5
20260506093944 11 135 11.3 14.5 0.00 0.13 0.00 78 1009.5
20260506092944 11 130 12.9 14.5 0.00 0.18 0.00 79 1009.5
20260506091239 11 128 12.9 16.1 0.00 0.25 0.00 79 1009.4
20260506090737 11 130 12.9 16.1 0.00 0.28 0.00 79 1009.4
20260506090237 11 129 11.3 16.1 0.00 0.28 0.00 79 1009.4
20260506085349 11 131 12.9 14.5 0.00 0.30 0.00 80 1009.5
20260506084349 10 121 11.3 16.1 0.00 0.30 0.00 81 1009.5
20260506083849 10 121 12.9 16.1 0.00 0.30 0.00 83 1009.5
20260506083349 9 130 11.3 12.9 0.00 0.30 0.00 83 1009.6
20260506081850 9 137 8.0 11.3 0.00 0.30 0.00 83 1009.5
20260506080349 10 113 12.9 14.5 0.00 0.30 0.00 81 1009.5
20260506072121 11 112 11.3 16.1 0.00 0.30 0.00 74 1009.2
20260506070121 11 113 12.9 19.3 0.00 0.30 0.00 74 1009.1
20260506060623 11 129 9.7 12.9 0.00 0.30 0.00 77 1008.5
20260506051121 11 130 9.7 11.3 0.00 0.30 0.00 78 1008.2
20260506050621 12 121 6.4 11.3 0.00 0.30 0.00 78 1008.2
20260506044621 12 108 4.8 9.7 0.00 0.30 0.00 82 1008.0
20260506043121 12 107 3.2 6.4 0.00 0.30 0.00 84 1007.9
20260506042621 12 107 3.2 4.8 0.00 0.30 0.00 84 1007.8
20260506041121 12 107 1.6 9.7 0.00 0.30 0.00 84 1007.6
20260506035621 12 87 6.4 9.7 0.00 0.30 0.00 80 1007.4
20260506034621 13 74 4.8 9.7 0.00 0.30 0.00 74 1007.2
20260506034121 14 71 4.8 9.7 0.00 0.30 0.00 72 1007.2
20260506031915 15 60 4.8 8.0 0.00 0.30 0.00 70 1006.9
20260506024914 15 55 4.8 8.0 0.00 0.30 0.00 69 1006.6
20260506023913 15 56 4.8 8.0 0.00 0.30 0.00 69 1006.4
20260506020114 15 60 4.8 8.0 0.00 0.30 0.00 69 1006.3
20260506014614 15 49 4.8 8.0 0.00 0.30 0.00 70 1006.2
20260506011330 15 37 8.0 12.9 0.00 0.30 0.00 68 1006.1
20260506005329 15 41 6.4 9.7 0.00 0.30 0.00 69 1006.1
20260506004039 15 30 6.4 12.9 0.00 0.30 0.00 71 1006.1
20260505225957 15 20 11.3 17.7 0.00 0.30 0.00 74 1005.9
20260505223500 16 0 0.0 9.7 0.00 0.30 0.00 72 1006.2
20260505221959 15 0 0.0 8.0 0.00 0.30 0.00 75 1006.5
20260505221459 15 129 3.2 8.0 0.00 0.30 0.00 76 1006.5
20260505213916 13 40 4.8 8.0 0.00 0.30 0.00 86 1006.9
20260505213416 12 39 3.2 8.0 0.00 0.30 0.00 86 1007.1